Temperature
28 29 27 27 27 27 27 27 27 25 25 24 23 22 21 21 20 20 20 19 19 18 17 16 16 15 15 15 15 15 15 15 15 15 15 15 15 16 16 17 17 17 17 17
28 27 27 27 27 27 27 27 27 25 24 24 23 22 21 21 20 19 19 18 18 17 16 16 15 14 14 14 14 14 14 14 14 14 14 14 14 15 15 16 16 16 17 17
27 26 27 27 27 26 26 26 25 25 24 24 23 22 21 21 20 19 18 18 17 16 16 15 14 14 13 13 13 13 13 13 13 13 14 14 14 14 15 15 15 16 16 16
27 26 26 26 26 24 25 24 24 24 23 23 23 21 20 20 20 19 18 17 17 16 15 14 14 13 13 13 13 13 13 13 13 13 13 13 13 13 14 14 15 15 16 16
26 25 25 25 24 23 23 23 23 23 23 23 24 22 19 20 19 18 18 17 16 16 15 14 14 13 13 13 12 12 13 13 13 13 13 13 13 13 14 14 14 15 15 16
25 25 24 23 24 23 23 23 24 24 23 22 23 22 19 19 18 18 18 17 16 16 15 14 14 13 13 13 12 12 12 13 13 13 13 13 13 13 14 14 14 15 15 15
25 25 24 24 24 24 24 23 23 23 22 22 23 22 18 19 19 18 18 17 16 16 15 14 14 13 13 13 12 12 12 12 12 13 13 13 13 13 13 13 14 14 14 15
26 24 23 23 23 22 23 23 22 21 22 22 22 21 19 19 19 18 17 17 16 16 15 15 14 13 13 13 12 12 12 12 12 12 12 12 13 13 13 13 13 14 14 14
27 23 23 22 23 22 22 23 24 22 23 23 22 20 19 20 19 18 18 17 16 16 15 15 14 14 13 13 13 12 12 12 12 12 12 12 12 12 13 13 13 13 13 14
27 24 23 23 22 23 22 22 22 22 22 21 22 21 19 19 19 19 18 17 16 16 15 15 14 14 14 13 13 13 12 12 12 12 12 12 12 12 12 12 13 13 13 13
26 26 23 23 23 22 22 23 22 22 22 21 20 19 20 19 18 18 18 17 16 16 16 15 15 14 14 13 13 13 12 12 12 12 12 12 12 12 12 12 12 13 13 13
25 25 25 24 22 22 21 21 21 21 21 22 20 19 20 19 19 18 18 17 17 16 16 16 15 15 14 14 13 13 12 12 12 12 12 12 11 11 12 12 12 12 12 13
24 24 24 22 21 21 22 21 21 21 21 22 20 19 20 19 19 18 18 17 17 17 16 16 16 15 14 14 14 13 12 12 12 12 12 11 11 11 11 11 11 12 12 12
21 24 24 23 22 23 23 22 21 21 21 22 22 20 20 19 19 18 18 17 17 17 17 17 16 16 15 14 14 13 13 12 12 12 12 11 11 11 11 11 11 11 11 12
23 24 25 24 24 23 23 23 22 21 22 21 22 21 21 20 19 18 18 18 18 18 17 17 16 16 16 15 14 14 13 13 12 12 12 11 11 11 11 11 11 11 11 11
24 24 25 24 24 24 23 23 23 22 22 22 21 21 22 20 19 19 18 18 18 18 17 17 17 16 16 16 15 14 14 13 13 12 12 11 11 11 11 11 11 11 11 11
25 24 24 25 25 24 24 25 24 23 23 22 21 22 22 20 19 19 19 18 18 18 17 17 16 16 16 16 15 15 14 14 13 12 12 11 11 11 11 10 10 10 10 10
25 24 24 24 25 24 24 25 24 24 23 23 22 22 21 20 20 19 18 18 18 18 17 17 16 16 16 16 16 15 15 14 13 12 12 11 11 11 10 10 10 10 10 10
24 24 23 24 24 25 24 24 24 23 23 24 23 22 21 21 20 19 19 18 18 18 17 17 16 16 16 16 15 16 15 14 13 12 12 11 11 10 10 10 10 10 10 10
23 23 23 23 23 24 24 24 24 23 22 25 24 22 22 21 19 20 19 18 18 17 17 16 16 16 16 15 15 16 15 14 13 12 11 11 11 10 10 10 10 10 10 10
22 22 22 22 23 25 24 23 23 22 23 24 24 23 22 21 20 20 19 18 18 17 16 16 16 16 15 15 15 16 15 14 13 12 11 11 10 11 10 10 10 9 9 9
25 24 24 24 24 24 23 22 23 24 24 24 24 23 22 21 21 19 19 18 17 17 16 16 16 16 16 15 15 15 14 13 12 12 11 11 11 10 10 10 10 10 9 9
25 26 25 25 25 24 23 23 24 24 23 24 23 23 22 21 21 19 19 18 17 17 17 16 16 16 16 16 15 15 14 13 13 12 12 11 11 11 10 10 10 10 9 9
27 27 25 24 25 26 25 24 23 23 23 23 23 22 22 21 21 20 19 18 18 17 17 17 16 16 17 16 15 14 14 13 13 13 12 12 12 11 11 10 10 10 10 10
26 25 25 24 25 26 26 25 24 23 23 22 22 22 21 21 20 20 19 18 18 18 17 17 16 16 16 16 15 15 14 13 13 13 13 12 12 11 11 10 10 10 10 10
26 26 24 24 26 26 26 25 24 23 23 22 22 21 21 20 20 20 19 19 18 18 17 17 17 16 16 16 16 15 14 14 13 14 13 13 12 12 11 11 10 10 10 10
Wind_Speed
2 4 5 9 9 9 12 12 11 7 5 3 3 4 6 6 6 9 10 11 11 12 13 13 13 13 13 12 11 11 11 9 7 5 5 5 5 4 4 4 6 7 7 8
5 3 7 6 6 9 11 12 9 6 6 3 1 3 7 5 6 8 11 12 13 13 13 12 13 14 13 12 12 12 11 10 9 6 6 6 6 5 6 5 5 6 7 8
5 7 5 6 7 9 12 8 10 8 2 3 4 4 7 6 7 8 9 11 12 13 14 14 14 13 12 12 13 12 11 11 10 9 6 7 6 5 5 6 5 5 6 7
5 4 5 7 6 8 8 9 8 8 7 5 6 2 8 6 6 7 9 10 11 11 12 12 12 12 13 13 12 13 12 12 11 9 7 8 7 7 7 6 6 6 5 6
5 5 7 7 7 7 7 8 8 9 9 9 7 3 7 5 6 8 9 9 9 10 10 10 11 11 11 11 11 11 11 11 11 10 9 8 7 6 6 6 6 6 5 5
7 4 5 6 5 3 6 9 10 8 8 8 3 1 6 4 7 8 8 9 9 9 9 9 9 9 9 9 10 10 10 11 11 11 10 9 9 8 8 7 6 5 4 4
7 6 4 4 8 4 6 8 5 4 4 1 3 2 6 6 6 6 7 8 8 7 8 8 8 9 9 9 10 10 10 10 11 11 10 9 10 9 8 8 6 6 4 4
7 6 5 5 6 6 8 6 6 5 3 2 2 3 6 5 4 3 5 7 7 7 7 7 8 7 7 8 8 9 9 9 10 10 9 9 9 7 7 8 7 6 5 4
5 7 5 3 4 5 7 7 6 5 11 5 5 7 6 5 4 3 5 6 7 7 7 7 7 7 7 7 7 7 8 8 9 9 8 8 9 9 9 9 8 6 6 5
6 3 5 2 5 4 2 4 6 5 6 5 0 4 4 4 2 3 5 5 6 7 7 7 6 6 6 6 5 6 6 7 8 8 8 7 8 8 8 8 9 8 8 7
7 3 7 5 1 4 5 3 4 5 3 3 4 4 5 4 2 2 3 4 4 5 5 5 5 5 5 6 6 6 6 7 7 8 7 7 7 7 7 8 8 8 8 9
3 6 3 6 6 2 2 4 6 5 6 3 2 3 6 4 2 1 2 2 3 3 3 3 4 4 4 5 5 6 6 6 6 7 7 7 7 8 9 9 9 8 9 9
6 5 1 5 5 4 3 1 3 5 5 3 2 4 5 4 3 2 0 1 2 2 3 3 3 2 2 3 4 5 6 6 5 6 7 7 7 8 8 9 9 9 9 10
4 5 4 5 5 1 1 2 2 6 5 5 2 3 6 5 4 3 2 2 3 3 2 3 3 1 1 2 2 3 4 5 6 6 7 7 7 8 8 8 9 10 10 11
4 6 1 1 1 3 5 5 5 7 7 6 5 3 0 4 4 3 3 3 3 3 4 5 5 4 2 2 1 2 3 3 4 5 6 6 7 7 7 8 8 9 10 11
4 7 5 7 6 6 10 10 9 8 8 7 6 4 3 6 5 5 5 3 3 2 4 5 6 6 5 2 1 2 3 3 3 5 6 6 7 7 7 7 7 7 8 9
5 6 6 6 5 6 9 7 9 9 6 6 7 2 7 6 6 5 4 3 3 2 3 4 5 4 4 3 2 3 3 1 3 5 6 6 6 7 7 8 7 7 7 8
5 5 4 7 6 6 5 4 1 4 7 6 6 2 5 5 5 4 3 4 4 2 3 4 5 5 4 5 4 1 3 3 5 6 6 5 6 7 7 7 7 8 6 6
5 5 4 4 6 7 6 5 2 4 7 9 10 8 7 6 6 7 9 7 4 0 2 3 4 5 5 7 6 4 4 5 6 6 6 6 6 6 7 7 7 6 6 5
5 6 5 5 5 3 7 8 4 2 5 7 11 11 9 9 6 6 10 8 5 3 1 3 5 4 5 5 6 5 5 7 7 6 6 5 5 6 6 7 6 5 5 5
4 5 6 7 6 2 8 8 5 2 4 3 6 10 11 10 6 4 11 8 6 4 1 2 4 3 3 4 6 5 7 7 6 5 5 5 5 4 5 5 4 4 4 4
5 4 5 5 5 0 9 7 5 4 2 2 3 7 10 9 7 8 8 8 7 6 4 3 3 2 0 1 4 4 6 6 5 4 3 3 5 5 5 3 3 4 5 5
4 3 3 3 2 5 8 8 6 4 6 4 4 6 8 9 9 9 8 7 7 6 6 4 2 3 3 1 3 4 4 3 3 4 3 1 4 3 2 4 5 5 5 5
4 3 2 5 6 5 9 11 8 6 6 6 3 6 8 9 9 9 8 8 7 7 6 5 4 5 2 4 3 0 2 1 2 3 2 1 2 2 3 3 4 4 5 5
4 2 4 6 9 8 5 8 8 8 8 7 5 6 8 9 9 9 8 8 8 7 6 5 4 3 2 2 3 4 2 2 2 3 3 3 3 1 1 4 3 4 4 3
9 9 7 5 5 5 5 2 4 7 9 9 7 7 8 9 9 9 9 8 8 7 6 7 7 6 6 4 2 4 4 3 4 3 3 2 3 2 1 3 3 2 2 4
Wind_Direction
263 280 36 17 358 327 312 300 299 101 97 33 69 102 99 62 27 17 10 12 9 7 3 6 359 357 352 348 340 330 328 328 325 321 315 309 302 295 284 266 251 231 226 231
216 77 40 348 321 307 297 297 309 100 83 1 238 148 108 80 50 36 14 8 8 2 360 0 0 0 351 346 340 333 334 333 332 323 315 303 299 292 282 276 266 250 232 223
58 54 12 323 325 337 314 342 348 344 15 264 244 184 130 116 67 47 24 14 8 4 360 358 0 359 353 352 347 340 340 338 336 330 323 314 305 293 285 285 281 268 256 237
66 48 335 315 6 354 332 19 336 307 284 247 214 222 131 121 70 41 27 17 11 8 4 4 3 360 358 356 352 348 348 347 345 338 328 320 308 299 294 292 287 283 270 258
98 35 356 354 11 340 327 328 295 280 269 269 233 234 129 107 38 28 24 15 15 10 8 8 4 359 0 358 358 354 355 354 351 347 340 331 321 309 304 301 297 293 285 276
92 75 36 355 313 272 288 276 254 246 257 251 230 264 110 62 26 14 16 15 16 9 8 9 8 360 1 3 1 360 2 0 357 355 353 347 337 334 332 327 316 310 305 296
161 141 111 355 319 227 268 300 289 232 217 223 91 86 90 72 47 24 18 18 15 14 11 8 8 1 2 4 3 1 2 359 358 358 358 355 350 350 350 341 332 327 323 314
204 138 79 33 10 335 319 309 324 318 328 150 171 95 107 97 88 46 41 26 12 16 15 11 9 5 3 5 1 0 1 359 358 1 0 3 2 2 1 356 351 350 346 332
343 98 106 62 1 341 328 344 343 298 295 295 130 118 134 144 106 62 42 27 15 12 14 14 9 8 5 5 0 356 0 2 359 0 359 6 8 8 6 3 1 358 351 356
323 106 118 133 234 186 328 319 314 305 341 335 287 128 125 122 61 53 49 26 15 10 8 10 1 4 6 1 1 3 10 8 2 0 5 11 7 7 9 6 5 1 358 6
299 255 152 187 25 10 338 314 325 294 272 313 340 75 74 86 73 29 47 26 6 2 357 356 357 2 9 3 12 9 14 16 7 1 1 9 9 5 12 9 5 8 9 14
334 306 161 119 93 60 20 358 338 329 346 337 308 103 96 102 114 73 42 17 353 345 334 341 360 360 11 6 11 15 15 14 9 2 3 12 14 12 18 13 7 13 16 16
349 295 256 148 155 188 201 68 315 297 282 281 325 112 135 149 154 159 123 335 311 308 334 353 351 347 13 11 13 29 19 7 7 7 10 15 18 17 18 14 9 17 21 20
319 277 330 359 29 32 216 197 257 291 295 320 19 107 165 170 173 182 194 240 283 301 3 2 340 342 55 51 27 41 28 5 10 19 17 14 19 21 19 20 15 19 23 27
265 288 348 20 302 280 279 262 236 253 286 306 359 2 105 140 157 182 210 236 276 327 15 5 355 10 45 87 77 80 47 10 13 29 26 15 16 22 18 24 22 24 27 30
251 294 291 258 222 254 269 260 246 245 258 269 285 275 136 125 154 194 211 224 271 349 15 4 6 12 1 20 83 117 83 28 19 41 41 26 21 19 16 25 24 27 35 32
233 273 305 300 157 259 265 246 226 227 231 249 263 258 139 165 193 209 204 209 272 344 9 8 1 358 330 357 58 87 91 62 45 51 47 37 29 21 18 21 24 26 35 36
299 300 296 288 273 278 91 69 35 238 237 223 241 232 164 189 174 187 208 210 255 305 13 13 349 335 349 16 17 94 130 96 67 53 40 39 43 28 21 17 27 28 24 30
298 302 288 288 311 290 146 143 169 232 260 228 211 212 186 186 187 204 201 197 213 272 11 2 342 332 21 20 354 344 85 81 69 58 44 36 41 36 25 19 20 25 17 15
248 278 276 291 293 319 101 114 127 255 271 216 191 194 186 179 219 223 174 169 177 165 21 4 322 347 30 3 330 325 68 76 67 53 49 39 41 47 33 22 15 14 12 4
194 219 236 261 275 314 115 125 148 244 13 56 179 184 185 190 215 128 140 154 163 160 182 290 306 355 37 349 323 347 63 72 77 59 53 42 27 59 64 22 3 10 1 353
214 223 219 234 257 85 135 154 205 270 20 271 209 189 186 188 181 134 149 155 166 177 189 232 285 323 328 331 327 12 70 82 97 94 68 61 54 31 38 19 360 9 359 357
216 280 330 305 354 127 186 209 234 277 298 281 192 189 184 186 180 162 167 170 183 197 192 195 237 281 266 121 45 11 73 102 139 144 137 143 132 124 56 11 18 20 15 9
196 162 262 288 282 254 207 213 236 242 252 282 219 190 188 192 187 175 176 181 191 206 205 183 220 251 245 119 136 132 88 202 193 136 138 164 86 92 98 70 43 40 27 14
340 157 232 260 272 270 223 201 221 233 229 244 236 205 195 192 194 185 187 189 190 201 195 181 224 257 288 231 189 160 150 264 227 172 198 166 130 112 91 103 75 67 88 75
268 242 221 249 322 350 359 79 205 232 229 227 225 217 199 194 200 196 195 191 188 197 199 196 209 220 236 222 177 142 146 234 256 220 182 152 154 149 151 149 142 71 106 141
Height
1522 1521 1526 1529 1528 1530 1528 1528 1527 1532 1534 1537 1541 1546 1551 1555 1557 1557 1556 1556 1555 1554 1553 1550 1547 1544 1540 1537 1534 1531 1529 1526 1524 1522 1520 1519 1517 1516 1515 1515 1514 1514 1515 1516
1522 1527 1530 1529 1528 1529 1528 1528 1527 1530 1535 1537 1541 1545 1550 1555 1557 1559 1559 1558 1556 1555 1552 1549 1546 1543 1539 1535 1532 1529 1526 1523 1520 1518 1516 1515 1514 1512 1511 1510 1510 1510 1510 1511
1525 1533 1532 1531 1529 1533 1530 1531 1534 1535 1536 1536 1541 1548 1551 1554 1557 1559 1560 1559 1558 1555 1553 1549 1546 1542 1538 1534 1531 1527 1524 1521 1518 1515 1513 1511 1509 1508 1507 1506 1505 1505 1505 1505
1529 1533 1533 1532 1532 1538 1537 1536 1537 1537 1541 1541 1541 1555 1555 1553 1557 1558 1559 1559 1558 1556 1553 1550 1546 1542 1538 1534 1530 1526 1522 1518 1515 1512 1510 1508 1506 1504 1502 1501 1500 1500 1500 1500
1533 1535 1536 1537 1540 1542 1540 1538 1538 1537 1538 1539 1536 1546 1559 1553 1558 1558 1559 1559 1558 1556 1554 1550 1547 1543 1538 1534 1530 1525 1521 1517 1514 1511 1508 1505 1503 1500 1498 1497 1496 1495 1495 1495
1536 1538 1541 1542 1540 1541 1539 1538 1533 1533 1536 1545 1536 1544 1561 1557 1559 1559 1559 1559 1558 1557 1554 1551 1547 1543 1539 1535 1530 1525 1521 1517 1513 1510 1507 1504 1501 1498 1496 1494 1493 1492 1491 1491
1536 1536 1540 1542 1539 1536 1535 1539 1544 1545 1551 1546 1536 1544 1560 1556 1557 1559 1560 1559 1558 1557 1554 1551 1547 1543 1539 1535 1531 1526 1522 1518 1514 1510 1507 1504 1501 1498 1495 1492 1491 1490 1489 1488
1530 1540 1541 1543 1544 1546 1539 1540 1551 1557 1548 1546 1540 1547 1556 1554 1557 1558 1559 1559 1558 1556 1554 1551 1548 1544 1540 1536 1532 1528 1524 1520 1516 1511 1508 1505 1502 1499 1496 1493 1490 1489 1487 1486
1527 1544 1543 1545 1545 1544 1543 1538 1537 1546 1537 1538 1539 1547 1553 1552 1555 1557 1558 1559 1558 1556 1554 1552 1548 1545 1541 1537 1533 1530 1526 1522 1518 1514 1510 1507 1503 1500 1497 1494 1492 1490 1488 1486
1527 1538 1541 1544 1545 1544 1544 1545 1543 1544 1552 1555 1543 1544 1552 1553 1554 1555 1557 1558 1558 1556 1554 1552 1549 1545 1542 1539 1535 1532 1528 1524 1520 1516 1512 1509 1506 1502 1499 1496 1493 1491 1489 1487
1529 1532 1541 1542 1543 1547 1545 1543 1543 1542 1542 1554 1557 1559 1548 1551 1554 1555 1556 1557 1557 1556 1554 1551 1548 1546 1543 1540 1536 1533 1529 1526 1522 1518 1515 1512 1508 1505 1503 1500 1497 1494 1492 1490
1533 1534 1533 1540 1544 1546 1547 1549 1549 1554 1550 1545 1553 1560 1548 1551 1553 1555 1556 1557 1556 1555 1553 1550 1548 1545 1543 1540 1537 1534 1530 1527 1524 1521 1518 1515 1511 1508 1505 1503 1500 1498 1495 1493
1536 1538 1541 1549 1553 1550 1546 1548 1549 1548 1547 1545 1553 1558 1548 1550 1552 1554 1555 1555 1555 1553 1551 1549 1547 1544 1542 1540 1537 1535 1532 1529 1526 1523 1520 1517 1514 1511 1508 1505 1503 1501 1498 1496
1543 1537 1540 1551 1548 1543 1543 1546 1548 1550 1549 1545 1544 1547 1546 1547 1550 1552 1553 1554 1553 1552 1550 1549 1546 1544 1541 1539 1537 1535 1532 1530 1527 1524 1521 1519 1516 1513 1511 1508 1505 1503 1501 1498
1542 1536 1533 1536 1538 1540 1541 1542 1543 1547 1544 1546 1542 1544 1542 1544 1548 1550 1552 1552 1551 1550 1550 1548 1546 1544 1542 1539 1537 1535 1533 1531 1528 1526 1523 1520 1518 1516 1513 1510 1508 1505 1503 1500
1540 1538 1534 1536 1534 1536 1537 1535 1536 1539 1540 1540 1541 1541 1539 1543 1547 1548 1549 1550 1550 1549 1549 1548 1546 1544 1542 1539 1537 1535 1533 1532 1529 1527 1524 1522 1519 1517 1515 1512 1510 1507 1505 1502
1535 1536 1538 1534 1529 1535 1535 1525 1528 1532 1533 1537 1540 1537 1536 1541 1544 1546 1547 1548 1549 1549 1548 1547 1546 1544 1542 1540 1537 1535 1533 1532 1530 1528 1526 1523 1521 1518 1516 1514 1512 1509 1507 1505
1534 1535 1537 1537 1532 1542 1531 1522 1524 1527 1529 1530 1533 1534 1536 1539 1542 1544 1546 1547 1548 1548 1548 1547 1546 1544 1542 1540 1538 1536 1534 1532 1531 1529 1527 1525 1522 1520 1518 1516 1514 1511 1509 1507
1537 1538 1541 1537 1539 1531 1526 1523 1525 1529 1529 1525 1528 1532 1535 1538 1540 1542 1543 1545 1546 1547 1547 1546 1545 1544 1542 1540 1538 1537 1534 1533 1531 1529 1528 1526 1524 1522 1519 1517 1515 1513 1511 1509
1539 1538 1543 1540 1543 1536 1528 1523 1525 1529 1529 1519 1522 1528 1532 1536 1540 1537 1538 1542 1544 1545 1546 1545 1544 1543 1542 1540 1538 1537 1535 1533 1531 1530 1529 1527 1525 1523 1521 1519 1517 1515 1513 1511
1541 1541 1544 1545 1542 1524 1523 1524 1527 1536 1530 1520 1521 1525 1529 1532 1536 1535 1536 1539 1542 1544 1544 1544 1544 1543 1541 1540 1538 1537 1535 1533 1532 1530 1529 1528 1526 1524 1522 1520 1518 1517 1515 1513
1529 1531 1532 1533 1536 1532 1524 1525 1526 1525 1521 1521 1522 1523 1526 1530 1533 1534 1536 1538 1540 1542 1543 1543 1542 1542 1541 1540 1538 1538 1535 1534 1532 1531 1530 1528 1527 1525 1524 1522 1520 1518 1516 1515
1522 1522 1523 1524 1525 1521 1520 1520 1521 1521 1520 1520 1520 1522 1525 1527 1530 1533 1535 1537 1539 1540 1541 1541 1541 1541 1540 1539 1538 1537 1535 1534 1533 1532 1530 1529 1528 1526 1524 1523 1521 1519 1517 1515
1513 1516 1520 1522 1516 1515 1515 1516 1518 1518 1519 1519 1519 1521 1523 1525 1528 1530 1533 1535 1537 1538 1539 1539 1539 1539 1539 1538 1537 1536 1535 1534 1533 1532 1531 1530 1529 1528 1526 1524 1522 1520 1518 1516
1516 1517 1519 1519 1515 1512 1511 1512 1514 1515 1516 1517 1518 1519 1520 1522 1525 1527 1530 1532 1534 1535 1536 1537 1537 1537 1537 1537 1536 1534 1533 1533 1533 1532 1531 1530 1529 1528 1526 1525 1523 1521 1519 1517
1514 1513 1517 1518 1512 1511 1511 1511 1511 1512 1513 1514 1515 1516 1517 1519 1521 1524 1526 1528 1530 1532 1533 1534 1535 1535 1535 1535 1534 1533 1532 1531 1531 1531 1531 1530 1529 1527 1527 1525 1524 1522 1521 1519